Powrót do katalogu

STARLINK-3090

AktywnyŁącznośćVLEO
NORAD 49132·PAYLOAD·🇺🇸 United States

Wystrzelony Sep 14, 2021 z Vandenberg Space Force Base

Loading…

Następne Przeloty (najbliższe 24 godziny)

TLE

ŚwieżeSource: CelesTrak SupGP

Epoka: Sep 14, 2026, 20:20 UTC

1 49132C 21082C   26257.84770833 -.00019649  00000+0 -16463-2 0  2573
2 49132  70.0019 177.3941 0002949 267.0953 152.8714 14.98350116    13

Śledź STARLINK-3090 w czasie rzeczywistym z AllMySat

Download on the App Store